Regional Weather Roundup
Issued by NWS

Home | Current Version | Previous Version | Graphics & Text | Print | Product List | Glossary On
Versions: 1 2 3 4 5 6 7 8 9 10 11 12 13 14 15 16 17 18 19 20 21 22 23 24 25 26 27 28 29 30 31 32 33 34 35 36 37 38 39 40 41 42 43 44 45 46 47 48 49 50
000
ASUS45 KCYS 241810
RWRWY

WYOMING REGIONAL WEATHER ROUNDUP
NATIONAL WEATHER SERVICE CHEYENNE WY
1200 PM MDT SUN MAY 24 2015

NOTE:  "FAIR" INDICATES FEW OR NO CLOUDS BELOW 12,000 FEET
WITH NO SIGNIFICANT WEATHER AND/OR OBSTRUCTIONS TO VISIBILITY.

WYZ001-241900-
YELLOWSTONE NATIONAL PARK

CITY           SKY/WX    TMP DP  RH WIND       PRES   REMARKS
LK YELLOWSTONE   N/A     47  30  51 VRB3      30.04F
6HR MIN TEMP:  32; 6HR MAX TEMP:  47;

W YELLOWSTONE  NOT AVBL

$$
WYZ002>013-054>058-071-098>099-241900-
NORTHERN WYOMING

CITY           SKY/WX    TMP DP  RH WIND       PRES   REMARKS
JACKSON        SUNNY     55  37  50 N12G21    29.95F
CODY           CLOUDY    48  43  81 N13G18    30.01S
GREYBULL       CLOUDY    57  45  64 NW26      29.90S
6HR MIN TEMP:  50; 6HR MAX TEMP:  57; 6HR PCP: TRACE;

WORLAND        LGT RAIN  53  47  79 N12       29.93S
6HR MIN TEMP:  49; 6HR MAX TEMP:  53; 6HR PCP:  0.08;

SHERIDAN       RAIN      50  48  93 N10       29.98F FOG
6HR MIN TEMP:  49; 6HR MAX TEMP:  51; 6HR PCP:  0.76;

BUFFALO        HVY RAIN  48  47  96 N15G24    29.97S FOG
6HR MIN TEMP:  46; 6HR MAX TEMP:  48; 6HR PCP:  0.99;

GILLETTE       CLOUDY    52  48  86 NE18G25   29.92S
6HR MIN TEMP:  50; 6HR MAX TEMP:  52; 6HR PCP:  0.25;

HULETT         CLOUDY    52  50  93 NE14      29.95S FOG
NEWCASTLE      RAIN      52  50  93 CALM      29.91F

$$
WYZ014>020-022>026-101>103-241900-
CENTRAL WYOMING

CITY           SKY/WX    TMP DP  RH WIND       PRES   REMARKS
BIG PINEY      CLOUDY    52  37  56 N8        29.96S
6HR MIN TEMP:  37; 6HR MAX TEMP:  52;

PINEDALE       MOCLDY    50  36  57 W6        29.95F
DUBOIS         DRIZZLE   41  37  87 CALM      29.99S
LANDER         LGT RAIN  46  41  82 W8        29.96S
6HR MIN TEMP:  42; 6HR MAX TEMP:  46; 6HR PCP:  0.71;

RIVERTON       LGT RAIN  47  42  83 NW10      29.97S
6HR MIN TEMP:  44; 6HR MAX TEMP:  47; 6HR PCP:  0.55;

CASPER         LGT RAIN  49  44  83 S9        29.91R
6HR MIN TEMP:  44; 6HR MAX TEMP:  51; 6HR PCP:  0.04;

DOUGLAS        FAIR      57  44  62 VRB3      29.89F
6HR MIN TEMP:  46; 6HR MAX TEMP:  57; 6HR PCP:  0.08;


$$
WYZ021-027>030-104>119-241900-
SOUTHERN WYOMING

CITY           SKY/WX    TMP DP  RH WIND       PRES   REMARKS
EVANSTON       PTSUNNY   50  37  61 SW10      29.99S
6HR MIN TEMP:  36; 6HR MAX TEMP:  51;

KEMMERER       FAIR      52  39  62 W20G28    29.96F
FORT BRIDGER   CLOUDY    54  43  66 W16G23    29.99F
ROCK SPRINGS   LGT RAIN  34  33  96 S5        29.99S WCI  30
6HR MIN TEMP:  32; 6HR MAX TEMP:  40; 6HR PCP:  0.42;

DIXON          LGT RAIN  39  37  92 SW5       30.00S
RAWLINS        CLOUDY    43  38  82 SW8       29.94S
6HR MIN TEMP:  34; 6HR MAX TEMP:  43; 6HR PCP:  0.01;

SARATOGA       MOCLDY    46  37  71 W7        29.95S
LARAMIE        CLOUDY    49  33  54 SE9       29.91S
6HR MIN TEMP:  38; 6HR MAX TEMP:  52;

CHEYENNE       PTSUNNY   55  38  52 E10       29.90F
6HR MIN TEMP:  37; 6HR MAX TEMP:  58;

TORRINGTON     FAIR      61  50  67 SE7       29.86F
6HR MIN TEMP:  49; 6HR MAX TEMP:  62;

PINE BLUFFS    MOCLDY    59  43  55 NE6       29.89F

$$


USA.gov is the U.S. government's official web portal to all federal, state and local government web resources and services.